Location: Killam
(52.7910°N, 111.8608°W)
Time: 16:15:49
(UTC+00:00)

Vanguard 2 Rocket - Pass Details

Date: 19 February 2026
Orbit: 553 x 3286 km, 32.9° (Epoch: 11 March)

Event Time Altitude Azimuth Distance (km) Brightness Sun altitude
Rises 00:15:36 0° 263° (W) 6,424 13.1 3.4°
Reaches altitude 10° 00:21:59 10° 249° (WSW) 4,881 13.3 2.6°
Maximum altitude 00:29:48 19° 212° (SSW) 3,438 10.8 1.5°
Drops below altitude 10° 00:35:36 10° 172° (S) 3,439 10.0 0.6°
Sets 00:39:02 0° 154° (SSE) 4,005 10.1 0.1°
